Year,Month,Day,Hour,Minute,Value (Times are PST for windspeed in km/hr)
2007,01,03,00,00,3.90
2007,01,03,00,01,3.20
2007,01,03,00,02,3.20
2007,01,03,00,03,2.10
2007,01,03,00,04,0.50
2007,01,03,00,05,0.00
2007,01,03,00,06,0.40
2007,01,03,00,07,1.10
2007,01,03,00,08,0.70
2007,01,03,00,09,1.90
2007,01,03,00,10,0.70
2007,01,03,00,11,1.00
2007,01,03,00,12,1.20
2007,01,03,00,13,1.50
2007,01,03,00,14,0.00
2007,01,03,00,15,0.40
2007,01,03,00,16,0.10
2007,01,03,00,17,0.10
2007,01,03,00,18,0.60
2007,01,03,00,19,0.00
2007,01,03,00,20,1.00
2007,01,03,00,21,1.30
2007,01,03,00,22,0.70
2007,01,03,00,23,0.40
2007,01,03,00,24,0.40
2007,01,03,00,25,0.20
2007,01,03,00,26,1.30
2007,01,03,00,27,1.20
2007,01,03,00,28,0.90
2007,01,03,00,29,2.10
2007,01,03,00,30,1.60
2007,01,03,00,31,1.50
2007,01,03,00,32,0.90
2007,01,03,00,33,1.90
2007,01,03,00,34,2.60
2007,01,03,00,35,1.70
2007,01,03,00,36,2.40
2007,01,03,00,37,3.60
2007,01,03,00,38,3.60
2007,01,03,00,39,3.60
2007,01,03,00,40,3.10
2007,01,03,00,41,2.90
2007,01,03,00,42,2.20
2007,01,03,00,43,3.60
2007,01,03,00,44,3.10
2007,01,03,00,45,2.60
2007,01,03,00,46,0.70
2007,01,03,00,47,1.50
2007,01,03,00,48,0.30
2007,01,03,00,49,0.60
2007,01,03,00,50,1.10
2007,01,03,00,51,2.70
2007,01,03,00,52,3.20
2007,01,03,00,53,1.80
2007,01,03,00,54,2.30
2007,01,03,00,55,4.20
2007,01,03,00,56,3.70
2007,01,03,00,57,3.90
2007,01,03,00,58,4.70
2007,01,03,00,59,4.00
2007,01,03,01,00,4.70
2007,01,03,01,01,4.80
2007,01,03,01,02,4.80
2007,01,03,01,03,4.80
2007,01,03,01,04,4.70
2007,01,03,01,05,5.00
2007,01,03,01,06,3.30
2007,01,03,01,07,3.50
2007,01,03,01,08,3.80
2007,01,03,01,09,6.60
2007,01,03,01,10,6.40
2007,01,03,01,11,5.60
2007,01,03,01,12,4.00
2007,01,03,01,13,4.80
2007,01,03,01,14,4.80
2007,01,03,01,15,6.80
2007,01,03,01,16,7.30
2007,01,03,01,17,8.10
2007,01,03,01,18,8.10
2007,01,03,01,19,5.80
2007,01,03,01,20,6.30
2007,01,03,01,21,5.00
2007,01,03,01,22,4.20
2007,01,03,01,23,4.00
2007,01,03,01,24,3.80
2007,01,03,01,25,4.10
2007,01,03,01,26,3.40
2007,01,03,01,27,2.90
2007,01,03,01,28,1.40
2007,01,03,01,29,3.10
2007,01,03,01,30,3.80
2007,01,03,01,31,3.10
2007,01,03,01,32,3.00
2007,01,03,01,33,4.50
2007,01,03,01,34,3.20
2007,01,03,01,35,4.30
2007,01,03,01,36,4.20
2007,01,03,01,37,3.40
2007,01,03,01,38,3.80
2007,01,03,01,39,2.90
2007,01,03,01,40,2.20
2007,01,03,01,41,3.60
2007,01,03,01,42,4.00
2007,01,03,01,43,2.60
2007,01,03,01,44,2.90
2007,01,03,01,45,4.10
2007,01,03,01,46,3.60
2007,01,03,01,47,7.90
2007,01,03,01,48,5.50
2007,01,03,01,49,4.60
2007,01,03,01,50,4.80
2007,01,03,01,51,4.80
2007,01,03,01,52,4.80
2007,01,03,01,53,4.70
2007,01,03,01,54,7.80
2007,01,03,01,55,7.70
2007,01,03,01,56,7.70
2007,01,03,01,57,6.20
2007,01,03,01,58,6.40
2007,01,03,01,59,6.00
2007,01,03,02,00,6.40
2007,01,03,02,01,8.20
2007,01,03,02,02,6.70
2007,01,03,02,03,4.50
2007,01,03,02,04,4.80
2007,01,03,02,05,4.80
2007,01,03,02,06,4.10
2007,01,03,02,07,4.10
2007,01,03,02,08,5.40
2007,01,03,02,09,5.70
2007,01,03,02,10,9.40
2007,01,03,02,11,8.00
2007,01,03,02,12,5.80
2007,01,03,02,13,9.80
2007,01,03,02,14,9.70
2007,01,03,02,15,7.20
2007,01,03,02,16,7.00
2007,01,03,02,17,5.90
2007,01,03,02,18,7.80
2007,01,03,02,19,7.40
2007,01,03,02,20,6.00
2007,01,03,02,21,6.60
2007,01,03,02,22,6.00
2007,01,03,02,23,4.80
2007,01,03,02,24,4.80
2007,01,03,02,25,4.80
2007,01,03,02,26,6.20
2007,01,03,02,27,8.30
2007,01,03,02,28,7.90
2007,01,03,02,29,5.00
2007,01,03,02,30,5.70
2007,01,03,02,31,6.10
2007,01,03,02,32,8.80
2007,01,03,02,33,8.60
2007,01,03,02,34,6.90
2007,01,03,02,35,7.70
2007,01,03,02,36,5.10
2007,01,03,02,37,4.80
2007,01,03,02,38,5.80
2007,01,03,02,39,8.30
2007,01,03,02,40,7.40
2007,01,03,02,41,6.30
2007,01,03,02,42,7.70
2007,01,03,02,43,7.00
2007,01,03,02,44,6.70
2007,01,03,02,45,4.20
2007,01,03,02,46,3.30
2007,01,03,02,47,4.30
2007,01,03,02,48,4.50
2007,01,03,02,49,3.10
2007,01,03,02,50,2.70
2007,01,03,02,51,3.40
2007,01,03,02,52,1.80
2007,01,03,02,53,1.60
2007,01,03,02,54,1.60
2007,01,03,02,55,1.60
2007,01,03,02,56,1.60
2007,01,03,02,57,2.50
2007,01,03,02,58,2.70
2007,01,03,02,59,4.20
2007,01,03,03,00,2.60
2007,01,03,03,01,3.20
2007,01,03,03,02,2.50
2007,01,03,03,03,1.80
2007,01,03,03,04,2.10
2007,01,03,03,05,1.40
2007,01,03,03,06,2.30
2007,01,03,03,07,1.40
2007,01,03,03,08,0.60
2007,01,03,03,09,0.60
2007,01,03,03,10,0.30
2007,01,03,03,11,1.60
2007,01,03,03,12,1.50
2007,01,03,03,13,1.30
2007,01,03,03,14,0.30
2007,01,03,03,15,0.00
2007,01,03,03,16,0.00
2007,01,03,03,17,0.00
2007,01,03,03,18,0.00
2007,01,03,03,19,0.00
2007,01,03,03,20,0.00
2007,01,03,03,21,0.00
2007,01,03,03,22,0.40
2007,01,03,03,23,0.60
2007,01,03,03,24,0.90
2007,01,03,03,25,1.50
2007,01,03,03,26,0.90
2007,01,03,03,27,0.10
2007,01,03,03,28,1.30
2007,01,03,03,29,3.70
2007,01,03,03,30,2.40
2007,01,03,03,31,2.70
2007,01,03,03,32,0.20
2007,01,03,03,33,1.50
2007,01,03,03,34,1.20
2007,01,03,03,35,1.30
2007,01,03,03,36,1.20
2007,01,03,03,37,4.40
2007,01,03,03,38,2.10
2007,01,03,03,39,1.80
2007,01,03,03,40,4.10
2007,01,03,03,41,3.20
2007,01,03,03,42,4.60
2007,01,03,03,43,3.90
2007,01,03,03,44,3.10
2007,01,03,03,45,4.00
2007,01,03,03,46,2.70
2007,01,03,03,47,2.70
2007,01,03,03,48,2.70
2007,01,03,03,49,3.90
2007,01,03,03,50,4.40
2007,01,03,03,51,7.10
2007,01,03,03,52,4.50
2007,01,03,03,53,3.70
2007,01,03,03,54,7.40
2007,01,03,03,55,6.50
2007,01,03,03,56,3.10
2007,01,03,03,57,0.80
2007,01,03,03,58,1.90
2007,01,03,03,59,1.80
2007,01,03,04,00,2.80
2007,01,03,04,01,5.50
2007,01,03,04,02,3.80
2007,01,03,04,03,4.80
2007,01,03,04,04,4.10
2007,01,03,04,05,3.60
2007,01,03,04,06,3.40
2007,01,03,04,07,4.20
2007,01,03,04,08,5.70
2007,01,03,04,09,1.60
2007,01,03,04,10,0.80
2007,01,03,04,11,0.80
2007,01,03,04,12,5.80
2007,01,03,04,13,4.80
2007,01,03,04,14,2.60
2007,01,03,04,15,2.90
2007,01,03,04,16,4.20
2007,01,03,04,17,3.50
2007,01,03,04,18,3.90
2007,01,03,04,19,8.40
2007,01,03,04,20,12.90
2007,01,03,04,21,18.30
2007,01,03,04,22,8.70
2007,01,03,04,23,7.00
2007,01,03,04,24,14.60
2007,01,03,04,25,15.10
2007,01,03,04,26,17.10
2007,01,03,04,27,17.70
2007,01,03,04,28,17.70
2007,01,03,04,29,16.30
2007,01,03,04,30,18.90
2007,01,03,04,31,15.50
2007,01,03,04,32,14.50
2007,01,03,04,33,14.20
2007,01,03,04,34,14.00
2007,01,03,04,35,14.60
2007,01,03,04,36,14.20
2007,01,03,04,37,13.00
2007,01,03,04,38,10.40
2007,01,03,04,39,12.90
2007,01,03,04,40,11.30
2007,01,03,04,41,12.50
2007,01,03,04,42,13.70
2007,01,03,04,43,12.90
2007,01,03,04,44,9.90
2007,01,03,04,45,8.10
2007,01,03,04,46,10.10
2007,01,03,04,47,9.00
2007,01,03,04,48,11.30
2007,01,03,04,49,10.80
2007,01,03,04,50,9.50
2007,01,03,04,51,11.10
2007,01,03,04,52,11.20
2007,01,03,04,53,11.80
2007,01,03,04,54,11.50
2007,01,03,04,55,15.50
2007,01,03,04,56,9.00
2007,01,03,04,57,10.60
2007,01,03,04,58,9.70
2007,01,03,04,59,11.80
2007,01,03,05,00,12.20
2007,01,03,05,01,14.30
2007,01,03,05,02,17.10
2007,01,03,05,03,16.00
2007,01,03,05,04,16.30
2007,01,03,05,05,16.20
2007,01,03,05,06,10.30
2007,01,03,05,07,6.70
2007,01,03,05,08,6.40
2007,01,03,05,09,8.30
2007,01,03,05,10,9.20
2007,01,03,05,11,7.10
2007,01,03,05,12,4.10
2007,01,03,05,13,3.20
2007,01,03,05,14,4.50
2007,01,03,05,15,12.70
2007,01,03,05,16,8.20
2007,01,03,05,17,10.70
2007,01,03,05,18,13.80
2007,01,03,05,19,11.00
2007,01,03,05,20,9.20
2007,01,03,05,21,8.10
2007,01,03,05,22,10.70
2007,01,03,05,23,11.00
2007,01,03,05,24,14.20
2007,01,03,05,25,13.40
2007,01,03,05,26,9.80
2007,01,03,05,27,8.30
2007,01,03,05,28,7.90
2007,01,03,05,29,7.30
2007,01,03,05,30,7.10
2007,01,03,05,31,8.00
2007,01,03,05,32,7.00
2007,01,03,05,33,5.80
2007,01,03,05,34,3.60
2007,01,03,05,35,3.20
2007,01,03,05,36,2.50
2007,01,03,05,37,5.20
2007,01,03,05,38,10.70
2007,01,03,05,39,14.30
2007,01,03,05,40,14.00
2007,01,03,05,41,11.80
2007,01,03,05,42,13.60
2007,01,03,05,43,8.30
2007,01,03,05,44,4.80
2007,01,03,05,45,4.60
2007,01,03,05,46,6.90
2007,01,03,05,47,8.10
2007,01,03,05,48,10.30
2007,01,03,05,49,8.50
2007,01,03,05,50,7.90
2007,01,03,05,51,9.10
2007,01,03,05,52,6.40
2007,01,03,05,53,6.90
2007,01,03,05,54,6.70
2007,01,03,05,55,6.40
2007,01,03,05,56,3.60
2007,01,03,05,57,5.00
2007,01,03,05,58,4.20
2007,01,03,05,59,2.10
2007,01,03,06,00,2.40
2007,01,03,06,01,3.40
2007,01,03,06,02,1.80
2007,01,03,06,03,2.30
2007,01,03,06,04,2.80
2007,01,03,06,05,3.20
2007,01,03,06,06,2.50
2007,01,03,06,07,0.80
2007,01,03,06,08,0.20
2007,01,03,06,09,1.00
2007,01,03,06,10,2.80
2007,01,03,06,11,1.30
2007,01,03,06,12,0.00
2007,01,03,06,13,0.50
2007,01,03,06,14,0.00
2007,01,03,06,15,0.10
2007,01,03,06,16,0.40
2007,01,03,06,17,0.60
2007,01,03,06,18,0.00
2007,01,03,06,19,0.00
2007,01,03,06,20,0.10
2007,01,03,06,21,0.00
2007,01,03,06,22,0.60
2007,01,03,06,23,1.20
2007,01,03,06,24,0.40
2007,01,03,06,25,0.70
2007,01,03,06,26,0.20
2007,01,03,06,27,0.10
2007,01,03,06,28,0.00
2007,01,03,06,29,0.00
2007,01,03,06,30,0.00
2007,01,03,06,31,0.80
2007,01,03,06,32,0.40
2007,01,03,06,33,0.80
2007,01,03,06,34,3.20
2007,01,03,06,35,4.40
2007,01,03,06,36,3.60
2007,01,03,06,37,3.40
2007,01,03,06,38,3.60
2007,01,03,06,39,3.20
2007,01,03,06,40,2.40
2007,01,03,06,41,4.50
2007,01,03,06,42,3.70
2007,01,03,06,43,4.00
2007,01,03,06,44,5.50
2007,01,03,06,45,4.20
2007,01,03,06,46,3.50
2007,01,03,06,47,2.40
2007,01,03,06,48,2.90
2007,01,03,06,49,0.90
2007,01,03,06,50,1.90
2007,01,03,06,51,2.10
2007,01,03,06,52,4.50
2007,01,03,06,53,4.30
2007,01,03,06,54,3.50
2007,01,03,06,55,3.40
2007,01,03,06,56,1.90
2007,01,03,06,57,3.60
2007,01,03,06,58,4.20
2007,01,03,06,59,4.70
2007,01,03,07,00,5.00
2007,01,03,07,01,5.90
2007,01,03,07,02,5.20
2007,01,03,07,03,4.40
2007,01,03,07,04,4.80
2007,01,03,07,05,5.50
2007,01,03,07,06,4.60
2007,01,03,07,07,3.80
2007,01,03,07,08,1.50
2007,01,03,07,09,4.80
2007,01,03,07,10,5.30
2007,01,03,07,11,3.90
2007,01,03,07,12,4.50
2007,01,03,07,13,5.00
2007,01,03,07,14,4.80
2007,01,03,07,15,4.80
2007,01,03,07,16,5.50
2007,01,03,07,17,5.00
2007,01,03,07,18,5.60
2007,01,03,07,19,5.00
2007,01,03,07,20,6.90
2007,01,03,07,21,5.00
2007,01,03,07,22,5.30
2007,01,03,07,23,5.10
2007,01,03,07,24,5.90
2007,01,03,07,25,8.10
2007,01,03,07,26,5.60
2007,01,03,07,27,5.20
2007,01,03,07,28,7.40
2007,01,03,07,29,3.80
2007,01,03,07,30,4.70
2007,01,03,07,31,4.30
2007,01,03,07,32,3.60
2007,01,03,07,33,3.10
2007,01,03,07,34,4.30
2007,01,03,07,35,5.80
2007,01,03,07,36,6.40
2007,01,03,07,37,7.60
2007,01,03,07,38,7.80
2007,01,03,07,39,5.50
2007,01,03,07,40,5.80
2007,01,03,07,41,6.50
2007,01,03,07,42,5.60
2007,01,03,07,43,5.70
2007,01,03,07,44,7.20
2007,01,03,07,45,9.50
2007,01,03,07,46,9.60
2007,01,03,07,47,5.70
2007,01,03,07,48,6.20
2007,01,03,07,49,5.80
2007,01,03,07,50,4.80
2007,01,03,07,51,3.10
2007,01,03,07,52,3.60
2007,01,03,07,53,3.00
2007,01,03,07,54,3.10
2007,01,03,07,55,2.30
2007,01,03,07,56,1.60
2007,01,03,07,57,0.70
2007,01,03,07,58,0.60
2007,01,03,07,59,0.00
2007,01,03,08,00,0.40
2007,01,03,08,01,1.00
2007,01,03,08,02,0.80
2007,01,03,08,03,0.00
2007,01,03,08,04,1.50
2007,01,03,08,05,2.40
2007,01,03,08,06,3.50
2007,01,03,08,07,2.60
2007,01,03,08,08,2.50
2007,01,03,08,09,2.60
2007,01,03,08,10,3.00
2007,01,03,08,11,2.10
2007,01,03,08,12,2.90
2007,01,03,08,13,2.30
2007,01,03,08,14,0.90
2007,01,03,08,15,2.60
2007,01,03,08,16,3.20
2007,01,03,08,17,5.20
2007,01,03,08,18,5.60
2007,01,03,08,19,6.00
2007,01,03,08,20,8.20
2007,01,03,08,21,5.30
2007,01,03,08,22,5.70
2007,01,03,08,23,7.40
2007,01,03,08,24,9.30
2007,01,03,08,25,8.80
2007,01,03,08,26,10.90
2007,01,03,08,27,9.10
2007,01,03,08,28,11.80
2007,01,03,08,29,10.30
2007,01,03,08,30,12.50
2007,01,03,08,31,11.70
2007,01,03,08,32,13.50
2007,01,03,08,33,14.70
2007,01,03,08,34,17.10
2007,01,03,08,35,17.30
2007,01,03,08,36,14.90
2007,01,03,08,37,14.10
2007,01,03,08,38,18.60
2007,01,03,08,39,13.90
2007,01,03,08,40,9.30
2007,01,03,08,41,11.00
2007,01,03,08,42,8.70
2007,01,03,08,43,8.10
2007,01,03,08,44,7.90
2007,01,03,08,45,9.30
2007,01,03,08,46,8.30
2007,01,03,08,47,7.90
2007,01,03,08,48,5.60
2007,01,03,08,49,5.50
2007,01,03,08,50,4.20
2007,01,03,08,51,7.10
2007,01,03,08,52,10.20
2007,01,03,08,53,6.40
2007,01,03,08,54,9.20
2007,01,03,08,55,11.40
2007,01,03,08,56,6.20
2007,01,03,08,57,7.60
2007,01,03,08,58,7.10
2007,01,03,08,59,7.70
2007,01,03,09,00,10.40
2007,01,03,09,01,12.10
2007,01,03,09,02,7.50
2007,01,03,09,03,7.60
2007,01,03,09,04,7.10
2007,01,03,09,05,7.80
2007,01,03,09,06,8.00
2007,01,03,09,07,4.80
2007,01,03,09,08,8.10
2007,01,03,09,09,8.60
2007,01,03,09,10,8.80
2007,01,03,09,11,9.80
2007,01,03,09,12,9.60
2007,01,03,09,13,7.20
2007,01,03,09,14,9.10
2007,01,03,09,15,8.60
2007,01,03,09,16,8.50
2007,01,03,09,17,11.20
2007,01,03,09,18,7.70
2007,01,03,09,19,7.90
2007,01,03,09,20,8.10
2007,01,03,09,21,7.10
2007,01,03,09,22,5.70
2007,01,03,09,23,7.10
2007,01,03,09,24,5.60
2007,01,03,09,25,9.50
2007,01,03,09,26,9.60
2007,01,03,09,27,8.20
2007,01,03,09,28,7.20
2007,01,03,09,29,9.10
2007,01,03,09,30,6.40
2007,01,03,09,31,5.80
2007,01,03,09,32,7.00
2007,01,03,09,33,8.10
2007,01,03,09,34,9.60
2007,01,03,09,35,7.70
2007,01,03,09,36,9.30
2007,01,03,09,37,9.20
2007,01,03,09,38,9.10
2007,01,03,09,39,9.30
2007,01,03,09,40,12.50
2007,01,03,09,41,12.80
2007,01,03,09,42,13.10
2007,01,03,09,43,8.30
2007,01,03,09,44,11.00
2007,01,03,09,45,14.70
2007,01,03,09,46,9.40
2007,01,03,09,47,11.50
2007,01,03,09,48,8.50
2007,01,03,09,49,8.30
2007,01,03,09,50,14.20
2007,01,03,09,51,8.50
2007,01,03,09,52,10.50
2007,01,03,09,53,9.70
2007,01,03,09,54,11.50
2007,01,03,09,55,11.30
2007,01,03,09,56,12.00
2007,01,03,09,57,11.30
2007,01,03,09,58,10.30
2007,01,03,09,59,13.40
2007,01,03,10,00,9.00
2007,01,03,10,01,8.70
2007,01,03,10,02,6.80
2007,01,03,10,03,6.60
2007,01,03,10,04,8.00
2007,01,03,10,05,7.60
2007,01,03,10,06,8.10
2007,01,03,10,07,9.10
2007,01,03,10,08,14.60
2007,01,03,10,09,19.00
2007,01,03,10,10,14.70
2007,01,03,10,11,12.90
2007,01,03,10,12,9.40
2007,01,03,10,13,7.90
2007,01,03,10,14,8.20
2007,01,03,10,15,5.50
2007,01,03,10,16,3.60
2007,01,03,10,17,4.20
2007,01,03,10,18,7.80
2007,01,03,10,19,7.00
2007,01,03,10,20,8.50
2007,01,03,10,21,6.40
2007,01,03,10,22,7.40
2007,01,03,10,23,14.50
2007,01,03,10,24,10.00
2007,01,03,10,25,8.40
2007,01,03,10,26,4.40
2007,01,03,10,27,3.20
2007,01,03,10,28,3.20
2007,01,03,10,29,3.20
2007,01,03,10,30,3.20
2007,01,03,10,31,3.20
2007,01,03,10,32,3.20
2007,01,03,10,33,8.10
2007,01,03,10,34,13.50
2007,01,03,10,35,9.70
2007,01,03,10,36,10.00
2007,01,03,10,37,14.60
2007,01,03,10,38,9.90
2007,01,03,10,39,16.90
2007,01,03,10,40,13.30
2007,01,03,10,41,15.70
2007,01,03,10,42,15.90
2007,01,03,10,43,14.40
2007,01,03,10,44,10.70
2007,01,03,10,45,7.60
2007,01,03,10,46,9.70
2007,01,03,10,47,12.50
2007,01,03,10,48,15.40
2007,01,03,10,49,15.00
2007,01,03,10,50,10.90
2007,01,03,10,51,12.00
2007,01,03,10,52,12.90
2007,01,03,10,53,7.90
2007,01,03,10,54,11.90
2007,01,03,10,55,13.70
2007,01,03,10,56,11.50
2007,01,03,10,57,13.60
2007,01,03,10,58,12.70
2007,01,03,10,59,16.70
2007,01,03,11,00,12.60
2007,01,03,11,01,16.40
2007,01,03,11,02,15.50
2007,01,03,11,03,16.10
2007,01,03,11,04,13.00
2007,01,03,11,05,18.70
2007,01,03,11,06,21.80
2007,01,03,11,07,11.10
2007,01,03,11,08,14.10
2007,01,03,11,09,16.00
2007,01,03,11,10,20.90
2007,01,03,11,11,14.60
2007,01,03,11,12,9.70
2007,01,03,11,13,7.30
2007,01,03,11,14,8.10
2007,01,03,11,15,9.50
2007,01,03,11,16,8.50
2007,01,03,11,17,15.80
2007,01,03,11,18,14.70
2007,01,03,11,19,9.20
2007,01,03,11,20,11.10
2007,01,03,11,21,14.40
2007,01,03,11,22,14.60
2007,01,03,11,23,11.10
2007,01,03,11,24,12.30
2007,01,03,11,25,20.50
2007,01,03,11,26,14.70
2007,01,03,11,27,16.80
2007,01,03,11,28,15.20
2007,01,03,11,29,16.40
2007,01,03,11,30,12.90
2007,01,03,11,31,12.00
2007,01,03,11,32,13.00
2007,01,03,11,33,13.30
2007,01,03,11,34,13.70
2007,01,03,11,35,10.30
2007,01,03,11,36,10.60
2007,01,03,11,37,14.00
2007,01,03,11,38,19.00
2007,01,03,11,39,19.60
2007,01,03,11,40,14.40
2007,01,03,11,41,12.00
2007,01,03,11,42,14.50
2007,01,03,11,43,16.70
2007,01,03,11,44,15.60
2007,01,03,11,45,13.20
2007,01,03,11,46,13.90
2007,01,03,11,47,15.20
2007,01,03,11,48,15.00
2007,01,03,11,49,15.20
2007,01,03,11,50,16.20
2007,01,03,11,51,17.70
2007,01,03,11,52,17.70
2007,01,03,11,53,17.70
2007,01,03,11,54,13.30
2007,01,03,11,55,8.70
2007,01,03,11,56,8.60
2007,01,03,11,57,9.60
2007,01,03,11,58,11.20
2007,01,03,11,59,12.60
2007,01,03,12,00,14.20
2007,01,03,12,01,13.80
2007,01,03,12,02,9.20
2007,01,03,12,03,8.80
2007,01,03,12,04,12.00
2007,01,03,12,05,9.90
2007,01,03,12,06,14.90
2007,01,03,12,07,11.60
2007,01,03,12,08,12.70
2007,01,03,12,09,14.70
2007,01,03,12,10,9.50
2007,01,03,12,11,12.20
2007,01,03,12,12,18.60
2007,01,03,12,13,11.30
2007,01,03,12,14,14.60
2007,01,03,12,15,21.90
2007,01,03,12,16,13.70
2007,01,03,12,17,8.00
2007,01,03,12,18,16.80
2007,01,03,12,19,17.50
2007,01,03,12,20,14.50
2007,01,03,12,21,16.30
2007,01,03,12,22,17.20
2007,01,03,12,23,15.50
2007,01,03,12,24,17.70
2007,01,03,12,25,17.60
2007,01,03,12,26,17.10
2007,01,03,12,27,14.80
2007,01,03,12,28,14.80
2007,01,03,12,29,16.60
2007,01,03,12,30,17.70
2007,01,03,12,31,14.10
2007,01,03,12,32,13.10
2007,01,03,12,33,14.10
2007,01,03,12,34,15.30
2007,01,03,12,35,15.10
2007,01,03,12,36,15.90
2007,01,03,12,37,16.10
2007,01,03,12,38,14.20
2007,01,03,12,39,15.00
2007,01,03,12,40,13.90
2007,01,03,12,41,14.60
2007,01,03,12,42,16.60
2007,01,03,12,43,16.80
2007,01,03,12,44,12.40
2007,01,03,12,45,11.50
2007,01,03,12,46,19.00
2007,01,03,12,47,15.70
2007,01,03,12,48,17.60
2007,01,03,12,49,17.20
2007,01,03,12,50,29.00
2007,01,03,12,51,22.50
2007,01,03,12,52,23.60
2007,01,03,12,53,26.70
2007,01,03,12,54,16.20
2007,01,03,12,55,18.60
2007,01,03,12,56,19.30
2007,01,03,12,57,16.30
2007,01,03,12,58,19.50
2007,01,03,12,59,17.50
2007,01,03,13,00,19.40
2007,01,03,13,01,24.50
2007,01,03,13,02,27.00
2007,01,03,13,03,18.80
2007,01,03,13,04,17.50
2007,01,03,13,05,17.10
2007,01,03,13,06,18.30
2007,01,03,13,07,16.40
2007,01,03,13,08,12.80
2007,01,03,13,09,16.20
2007,01,03,13,10,14.60
2007,01,03,13,11,20.30
2007,01,03,13,12,20.40
2007,01,03,13,13,19.00
2007,01,03,13,14,14.30
2007,01,03,13,15,21.80
2007,01,03,13,16,17.10
2007,01,03,13,17,15.50
2007,01,03,13,18,18.40
2007,01,03,13,19,23.10
2007,01,03,13,20,21.00
2007,01,03,13,21,19.30
2007,01,03,13,22,18.60
2007,01,03,13,23,19.50
2007,01,03,13,24,20.90
2007,01,03,13,25,20.10
2007,01,03,13,26,23.70
2007,01,03,13,27,15.00
2007,01,03,13,28,16.70
2007,01,03,13,29,5.00
2007,01,03,13,30,10.70
2007,01,03,13,31,17.60
2007,01,03,13,32,26.00
2007,01,03,13,33,19.90
2007,01,03,13,34,14.80
2007,01,03,13,35,22.60
2007,01,03,13,36,17.30
2007,01,03,13,37,17.00
2007,01,03,13,38,19.10
2007,01,03,13,39,20.10
2007,01,03,13,40,15.50
2007,01,03,13,41,20.70
2007,01,03,13,42,17.00
2007,01,03,13,43,19.60
2007,01,03,13,44,20.40
2007,01,03,13,45,22.00
2007,01,03,13,46,11.60
2007,01,03,13,47,18.80
2007,01,03,13,48,21.30
2007,01,03,13,49,20.30
2007,01,03,13,50,16.70
2007,01,03,13,51,6.90
2007,01,03,13,52,9.70
2007,01,03,13,53,12.80
2007,01,03,13,54,11.50
2007,01,03,13,55,14.10
2007,01,03,13,56,14.60
2007,01,03,13,57,20.00
2007,01,03,13,58,16.50
2007,01,03,13,59,16.10
2007,01,03,14,00,13.20
2007,01,03,14,01,16.50
2007,01,03,14,02,15.50
2007,01,03,14,03,15.70
2007,01,03,14,04,21.10
2007,01,03,14,05,20.40
2007,01,03,14,06,21.10
2007,01,03,14,07,18.80
2007,01,03,14,08,17.10
2007,01,03,14,09,17.70
2007,01,03,14,10,18.20
2007,01,03,14,11,11.30
2007,01,03,14,12,21.80
2007,01,03,14,13,17.40
2007,01,03,14,14,20.00
2007,01,03,14,15,22.40
2007,01,03,14,16,20.20
2007,01,03,14,17,15.90
2007,01,03,14,18,15.50
2007,01,03,14,19,10.90
2007,01,03,14,20,11.30
2007,01,03,14,21,15.00
2007,01,03,14,22,19.90
2007,01,03,14,23,15.70
2007,01,03,14,24,13.50
2007,01,03,14,25,15.80
2007,01,03,14,26,18.30
2007,01,03,14,27,17.80
2007,01,03,14,28,17.90
2007,01,03,14,29,16.60
2007,01,03,14,30,17.50
2007,01,03,14,31,17.40
2007,01,03,14,32,15.90
2007,01,03,14,33,15.40
2007,01,03,14,34,16.00
2007,01,03,14,35,12.60
2007,01,03,14,36,15.70
2007,01,03,14,37,18.20
2007,01,03,14,38,15.00
2007,01,03,14,39,13.40
2007,01,03,14,40,10.70
2007,01,03,14,41,12.90
2007,01,03,14,42,18.70
2007,01,03,14,43,17.40
2007,01,03,14,44,19.90
2007,01,03,14,45,15.10
2007,01,03,14,46,19.30
2007,01,03,14,47,19.40
2007,01,03,14,48,18.80
2007,01,03,14,49,20.50
2007,01,03,14,50,17.70
2007,01,03,14,51,20.90
2007,01,03,14,52,14.80
2007,01,03,14,53,19.70
2007,01,03,14,54,22.80
2007,01,03,14,55,23.70
2007,01,03,14,56,20.20
2007,01,03,14,57,15.70
2007,01,03,14,58,16.50
2007,01,03,14,59,19.10
2007,01,03,15,00,16.20
2007,01,03,15,01,12.00
2007,01,03,15,02,16.00
2007,01,03,15,03,15.50
2007,01,03,15,04,8.30
2007,01,03,15,05,12.40
2007,01,03,15,06,15.40
2007,01,03,15,07,15.10
2007,01,03,15,08,8.70
2007,01,03,15,09,8.50
2007,01,03,15,10,8.50
2007,01,03,15,11,9.20
2007,01,03,15,12,7.90
2007,01,03,15,13,8.00
2007,01,03,15,14,7.00
2007,01,03,15,15,7.10
2007,01,03,15,16,6.60
2007,01,03,15,17,6.80
2007,01,03,15,18,7.90
2007,01,03,15,19,9.70
2007,01,03,15,20,9.60
2007,01,03,15,21,7.40
2007,01,03,15,22,10.80
2007,01,03,15,23,8.70
2007,01,03,15,24,8.70
2007,01,03,15,25,7.20
2007,01,03,15,26,7.00
2007,01,03,15,27,5.30
2007,01,03,15,28,4.80
2007,01,03,15,29,4.80
2007,01,03,15,30,6.70
2007,01,03,15,31,7.60
2007,01,03,15,32,6.40
2007,01,03,15,33,11.10
2007,01,03,15,34,10.60
2007,01,03,15,35,15.80
2007,01,03,15,36,14.10
2007,01,03,15,37,17.70
2007,01,03,15,38,16.10
2007,01,03,15,39,14.10
2007,01,03,15,40,10.00
2007,01,03,15,41,11.80
2007,01,03,15,42,10.40
2007,01,03,15,43,14.60
2007,01,03,15,44,21.60
2007,01,03,15,45,14.80
2007,01,03,15,46,8.50
2007,01,03,15,47,15.50
2007,01,03,15,48,11.90
2007,01,03,15,49,9.70
2007,01,03,15,50,6.10
2007,01,03,15,51,8.40
2007,01,03,15,52,10.40
2007,01,03,15,53,12.90
2007,01,03,15,54,12.80
2007,01,03,15,55,14.90
2007,01,03,15,56,11.20
2007,01,03,15,57,8.80
2007,01,03,15,58,10.90
2007,01,03,15,59,11.30
2007,01,03,16,00,8.60
2007,01,03,16,01,6.70
2007,01,03,16,02,7.80
2007,01,03,16,03,9.20
2007,01,03,16,04,11.30
2007,01,03,16,05,8.10
2007,01,03,16,06,7.10
2007,01,03,16,07,7.00
2007,01,03,16,08,7.50
2007,01,03,16,09,8.30
2007,01,03,16,10,7.80
2007,01,03,16,11,7.80
2007,01,03,16,12,4.80
2007,01,03,16,13,8.00
2007,01,03,16,14,8.40
2007,01,03,16,15,9.80
2007,01,03,16,16,5.30
2007,01,03,16,17,9.00
2007,01,03,16,18,6.80
2007,01,03,16,19,8.20
2007,01,03,16,20,9.10
2007,01,03,16,21,7.50
2007,01,03,16,22,13.00
2007,01,03,16,23,11.60
2007,01,03,16,24,8.30
2007,01,03,16,25,10.50
2007,01,03,16,26,9.10
2007,01,03,16,27,10.10
2007,01,03,16,28,11.60
2007,01,03,16,29,11.20
2007,01,03,16,30,8.30
2007,01,03,16,31,6.60
2007,01,03,16,32,6.20
2007,01,03,16,33,13.40
2007,01,03,16,34,11.10
2007,01,03,16,35,11.10
2007,01,03,16,36,7.70
2007,01,03,16,37,5.70
2007,01,03,16,38,12.60
2007,01,03,16,39,11.30
2007,01,03,16,40,11.10
2007,01,03,16,41,13.50
2007,01,03,16,42,12.70
2007,01,03,16,43,10.90
2007,01,03,16,44,9.90
2007,01,03,16,45,11.90
2007,01,03,16,46,13.90
2007,01,03,16,47,10.60
2007,01,03,16,48,11.10
2007,01,03,16,49,14.00
2007,01,03,16,50,10.70
2007,01,03,16,51,13.80
2007,01,03,16,52,5.90
2007,01,03,16,53,8.40
2007,01,03,16,54,8.30
2007,01,03,16,55,8.10
2007,01,03,16,56,10.10
2007,01,03,16,57,8.00
2007,01,03,16,58,6.20
2007,01,03,16,59,5.00
2007,01,03,17,00,4.70
2007,01,03,17,01,5.10
2007,01,03,17,02,12.90
2007,01,03,17,03,14.00
2007,01,03,17,04,16.40
2007,01,03,17,05,13.00
2007,01,03,17,06,8.10
2007,01,03,17,07,8.20
2007,01,03,17,08,8.70
2007,01,03,17,09,11.10
2007,01,03,17,10,11.30
2007,01,03,17,11,10.70
2007,01,03,17,12,5.80
2007,01,03,17,13,15.30
2007,01,03,17,14,19.30
2007,01,03,17,15,13.90
2007,01,03,17,16,13.10
2007,01,03,17,17,8.40
2007,01,03,17,18,11.00
2007,01,03,17,19,11.90
2007,01,03,17,20,12.30
2007,01,03,17,21,12.20
2007,01,03,17,22,11.90
2007,01,03,17,23,10.60
2007,01,03,17,24,11.60
2007,01,03,17,25,21.20
2007,01,03,17,26,21.20
2007,01,03,17,27,19.30
2007,01,03,17,28,17.30
2007,01,03,17,29,12.50
2007,01,03,17,30,9.30
2007,01,03,17,31,16.90
2007,01,03,17,32,13.30
2007,01,03,17,33,16.80
2007,01,03,17,34,12.80
2007,01,03,17,35,10.80
2007,01,03,17,36,14.60
2007,01,03,17,37,19.30
2007,01,03,17,38,17.80
2007,01,03,17,39,13.50
2007,01,03,17,40,17.80
2007,01,03,17,41,16.50
2007,01,03,17,42,15.00
2007,01,03,17,43,13.40
2007,01,03,17,44,16.20
2007,01,03,17,45,15.50
2007,01,03,17,46,9.70
2007,01,03,17,47,8.30